STARLINK-32567, 61930

Orbit data source: Space-Track

STARLINK-32567, 61930 is a payload satellite owned by SpaceX/Seattle (US) in LEO that was launched on Mon, 11 Nov 2024 UTC via an FALCON 9 launch vehicle from the Air Force Eastern Test Range (AFETR). Payload-class satellites include a variety of spacecraft equipped with specific instruments for various scientific and technological missions. These include communications satellites like Starlink; space stations such as the ISS; scientific satellites like the Hubble; Earth observation satellites from companies like Planet Labs, Umbra, and HawkEye 360; GPS; miniature CubeSats for education and research; and military/defense satellites.

Loading next visibility...
Identifier
61930, 2024-207U
Orbit
LEO
Country
Flag of USUS
Related business
Manufacturer
SpaceX/Seattle
Mission
Operational Commercial Communications
Bus & Motor
STARLINK V2M, Unknown motor
Mass
730 kg wet, ~700 kg dry
Launch date (UTC)
2024-11-11 (2 years ago)
Launch vehicle
FALCON 9
Launch site
Air Force Eastern Test Range (AFETR)
Object type
Payload
Rocket body
Debris
Shape & HBR
Box + 2 Pan, 17.7 m
Radar Cross Section
33.884 m², Large (>1 m²)

Expand to show TLE details & history
Last TLE update: 1 day ago

TLE from 1 day ago
0 STARLINK-32567
1 61930U 24207U   26206.41089940  .00016959  00000-0  62431-3 0  9994
2 61930  43.0007 220.5792 0001870 260.4567  99.6074 15.27582942 96418
Epoch: 2026-07-25T09:51Z
TLE epoch observation values (Epoch: 2026-07-25T09:51:41.708Z)
Latitude
0.00004°
Longitude
129.53189°
Altitude
483.03 km
Speed
7.626 km/s
True Right ascension
14h 42m 19s
True Declination
0° 00' 00"
Sunlit
Object was in daylight at epoch
Visualization orbit readout
Latitude
Unknown
Longitude
Unknown
Altitude
Unknown
Speed
Unknown
Apparent Right ascension
Unknown
Apparent Declination
Unknown
Sunlit
N/A
Visualization observer readout
Local Sidereal Time
23:12:00
Azimuth
Unknown
Elevation
Unknown
Doppler factor
Unknown
Orbital elements
Apogee altitude
486.269 km
Perigee altitude
483.702 km
Semi-major axis
6,863.122 km
Eccentricity
0.00019
Inclination
43.0007°
RAAN
220.5792°
Arg. of periapsis
260.4567°
True anomaly
99.62853°
Mean anomaly
99.6074°
Eccentric anomaly
99.61796°
Mean motion
3.81734 °/min
Orbital period
94.31 mins
BSTAR
0.00062431
Loading maneuver chart data...
Computing Atmospheric mass density...
Loading historical data...
Loading historical data...
Loading historical data...
Loading historical data...
Loading historical data...
Loading historical data...
Loading historical data...

Documentation

Showing up to 5 results
|